Location: Debolt
(55.2626°N, 118.0981°W)
Time: 00:09:45
(UTC+00:00)

MOZHAYETS 4 - Pass Details

Date: 16 December 2023
Orbit: 654 x 672 km, 98.3° (Epoch: 26 February)

Event Time Altitude Azimuth Distance (km) Brightness Sun altitude
Exits shadow 00:49:38 - 12° (NNE) 2,995 10.7 -11.2°
Reaches altitude 10° 00:51:49 10° 7° (N) 2,123 10.0 -11.5°
Maximum altitude 00:56:14 46° 295° (WNW) 916 8.7 -12.0°
Drops below altitude 10° 01:00:37 10° 223° (SW) 2,105 11.4 -12.6°
Sets 01:02:54 0° 217° (SW) 3,013 12.2 -12.9°
